Skip Page Navigation
NASA JPL Caltech
NASA Logo - Jet Propulsion Laboratory + View the NASA Portal
+ Near-Earth Object (NEO) Program
Search JPL
JPL Home Earth Solar System Stars & Galaxies Technology
JPL Solar System Dynamics
BODIES ORBITS EPHEMERIDES TOOLS PHYSICAL DATA DISCOVERY FAQ SITE MAP
JPL Small-Body Database Browser
Search: [ help ]  
52768 (1998 OR2)
Classification: Amor [NEO, PHA]          SPK-ID: 2052768
Ephemeris | Orbit Diagram | Orbital Elements | Physical Parameters | Discovery Circumstances | Close-Approach Data ]

[ hide orbit diagram ]
Orbit Diagram
Note: Make sure you have Java enabled on your browser to see the applet. This applet is provided as a 3D orbit visualization tool. The applet was implemented using 2-body methods, and hence should not be used for determining accurate long-term trajectories (over several years or decades) or planetary encounter circumstances. For accurate long-term ephemerides, please instead use our Horizons system.
Orbit Viewer

Additional Notes: the orbits shown in the applet are color coded. The planets are white lines, and the asteroid/comet is a blue line. The bright white line indicates the portion of the orbit that is above the ecliptic plane, and the darker portion is below the ecliptic plane. Likewise for the asteroid/comet orbit, the light blue indicates the portion above the ecliptic plane, and the dark blue the portion below the ecliptic plane.

Orbit Viewer applet originally written and kindly provided by Osamu Ajiki (AstroArts), and further modified by Ron Baalke (JPL).


Orbital Elements at Epoch 2456400.5 (2013-Apr-18.0) TDB
Reference: JPL 97 (heliocentric ecliptic J2000)
 Element Value Uncertainty (1-sigma)   Units 
e .5722254033124713 4.1786e-08  
a 2.380564672311479 3.1136e-08 AU
q 1.018345092586622 1.0201e-07 AU
i 5.876396790347151 6.4301e-06 deg
node 27.07498479270957 5.636e-05 deg
peri 174.4366753033276 5.6332e-05 deg
M 34.2282125468839 7.5992e-06 deg
tp 2456272.944225872077
(2012-Dec-11.44422587)
2.593e-05 JED
period 1341.585647312241
3.67
2.632e-05
7.206e-08
d
yr
n .2683391855907456 5.2645e-09 deg/d
Q 3.742784252036336 4.8952e-08 AU
  Orbit Determination Parameters
   # obs. used (total)      356  
   data-arc span      8950 days (24.50 yr)  
   first obs. used      1987-06-30  
   last obs. used      2011-12-31  
   planetary ephem.      DE405  
   SB-pert. ephem.      SB405-CPV-2  
   condition code      0  
   fit RMS      .61047  
   data source      ORB  
   producer      Otto Matic  
   solution date      2013-Apr-29 15:38:15  

Additional Information
 Earth MOID = .0160597 AU 
 T_jup = 3.289 
[ show covariance matrix ]

Ephemeris | Orbit Diagram | Orbital Elements | Physical Parameters | Discovery Circumstances | Close-Approach Data ]

Physical Parameter Table
Parameter Symbol Value Units Sigma Reference Notes
absolute magnitude H 15.808 mag .66255 97 autocmod 2.5c
rotation period rot_per 3.198 h n/a Asteroid Lightcurve DataBase (Rev. 2013-May-01) Result based on less than full coverage, so that the period may be wrong by 30 percent or so.
Published Reference List:
[Betzler, A.S.; Novaes, A.B. (2009) Minor Planet Bul. 36, 145-147.]

52768 (1998 OR2)          Discovered 1998-Jul-24 by NEAT at Haleakala (566)
Reference: 20030216/Numbers.arcLast Updated: 2004-04-19

[ show close-approach data ]
Ephemeris | Orbit Diagram | Orbital Elements | Physical Parameters | Discovery Circumstances | Close-Approach Data ]
ABOUT SSD CREDITS/AWARDS PRIVACY/COPYRIGHT GLOSSARY LINKS
FirstGov 2013-May-20 12:31 UT
(server date/time)  
NASA Home Page
Site Manager:   Donald K. Yeomans
Webmaster  Alan B. Chamberlin